User: anonymous   Login
Location: Unspecified
(0.0000°N, 0.0000°E)
Time: 23:31:03
(UTC+00:00)
Language:

WGS 9 (USA 275) - Orbit

View from above orbital plane
View from above orbital plane
View from above satellite
View from above satellite

Ground track
Ground track

The orbit is defined by the following mean orbital elements,

1 42075U          26144.86841780 +.00000000 +00000-0 +00000-0 0 00000
2 42075   0.0130 272.1294 0000262  58.6201 212.3328  1.00271689    08
Epoch (UTC): 24 May 2026 20:50:31
Eccentricity: 0.0000262
inclination: 0.0130°
perigee height: 35786 km
apogee height: 35788 km
right ascension of ascending node: 272.1294°
argument of perigee: 58.6201°
revolutions per day: 1.00271689
mean anomaly at epoch: 212.3328°

The dashed part of the orbit path shows where the satellite is in the earth's shadow,  

DLR